Location: ????????
(38.4362°N, 22.8767°E)
Time: 04:00:46
(UTC+00:00)

Delta 2 Rocket - Pass Details

Date: 23 April 2024
Orbit: 399 x 679 km, 35.6° (Epoch: 20 May)

Event Time Altitude Azimuth Distance (km) Brightness Sun altitude
Exits shadow 01:36:10 61° 209° (SSW) 779 3.7 -22.4°
Maximum altitude 01:36:37 64° 179° (S) 758 3.7 -22.4°
Drops below altitude 10° 01:41:34 10° 99° (E) 2,116 6.8 -21.6°
Sets 01:43:57 0° 96° (E) 3,012 7.8 -21.2°
